Hoosier Classic - Inventory Old Bird

Station: INVENTORY - T Race

Distance: 10 Miles

Release: 20-Jan-2018 12:00

Weather Release:    Arrival:

Wind at Release:     Wind at Arrival:

Temp at Release: °    Temp at Arrival: °

Lofts: 94

Birds: 317

Clocked: 317

Good Luck to Everyone!
Drops Pos Breeder Pigeon Name Color Sex Ent Arrival Speed To Win Eligible BronzeSilverGoldPlatinum
100 Van Den Bossche Brothers - ME 16561-AU17-QUES Voyager 1 BCH C 2 12:24:57.20 705.317 00:05:58 Yes
102 A F L - GA 0143-AU17-AFL ,,BLUELLA'' BB H 1 12:24:58.00 704.940 00:05:59 Yes
102 Hillside Loft - ME 17138-AU17-TWOB The Oracle SILV C 3 12:24:58.00 704.940 00:05:59 Yes
104 Jorge And Ayon - CA 2453-AU17-LOSB BCH C 1 12:24:58.40 704.752 00:05:59 Yes
104 Andy Skwiat - IN 0038-AU17-ANDY BB C 8 12:24:58.40 704.752 00:05:59 Yes
106 Erp -Duviel_ubaldo Team - GA 0054-AU17-ERP Chapo BCH C 2 12:24:59.00 704.470 00:06:00 Yes
107 Debbie Ganus - IN 0323-AU17-GFL BB H 5 12:24:59.10 704.423 00:06:00 Yes
108 Hawkroost Loft - OH 5001-AU17-ARPU BB H 1 12:24:59.40 704.282 00:06:00 Yes
109 F T L Loft - IN 13801-AU17-AA BB H 5 12:24:59.50 704.235 00:06:01 Yes
109 F T L Loft - IN 13873-AU17-AA BCH H 6 12:24:59.50 704.235 00:06:01 Yes
111 Dan & Pete - IL 0003-AU17-BFS BCH H 2 12:25:00.20 703.906 00:06:01 Yes
111 Dylan Loft - FL 1232-AU17-HRPC BB H 1 12:25:00.20 703.906 00:06:01 Yes
113 A F L - GA 0121-AU17-AFL ,,SHADOW'' BB H 2 12:25:00.80 703.625 00:06:02 Yes
114 Debbie Ganus - IN 0349-AU17-GFL BB H 6 12:25:01.40 703.344 00:06:02 Yes
115 Sandstrom Brothers Loft - MN 0716-AU17-SBL BCH H 1 12:25:01.80 703.156 00:06:03 Yes
116 Patrick Kwan - CA 0713-AU17-KWAN BB H 2 12:25:01.90 703.109 00:06:03 Yes
117 Tyler Shupe - IN 0018-AU17-TYLE BWF C 1 12:25:02.00 703.063 00:06:03 Yes
118 F T L Loft - IN 6271-AU17-VK BCH H 7 12:25:02.50 702.829 00:06:04 Yes
119 Mesopotamia Loft - MN 0349-AU17-MESO DCH C 2 12:25:02.90 702.642 00:06:04 Missing
120 Tegan Bogoslawski - IN 0077-AU17-ANDY BB C 2 12:25:03.50 702.361 00:06:05 Yes
120 Daehn/Miele - FL 0019-AU17-NWFI 33 X 19 BB H 3 12:25:03.50 702.361 00:06:05 Yes
122 Twin Loft - FL 0596-AU17-BLES BCH H 1 12:25:03.90 702.174 00:06:05 Yes
123 Tyler Shupe - IN 0058-AU17-TYLE BB H 2 12:25:04.00 702.128 00:06:05 Yes
123 H & H Loft - TX 6903-AU17-VK BB C 4 12:25:04.00 702.128 00:06:05 Yes
125 G & L Loft - OR 2321-AU17-WPC BCH H 1 12:25:04.10 702.081 00:06:05 Yes
126 Bird Dog Syndicate 2 - CA 0025-AU17-BURG BB H 1 12:25:04.60 701.848 00:06:06 Yes
126 Aubrina & Pappy - IN 0907-AU17-VK DCH H 5 12:25:04.60 701.848 00:06:06 Yes
128 Book & Van Wingerden - AZ 7033-AU17-BOOK BB C 7 12:25:04.70 701.801 00:06:06 Yes
129 Dos Hermano & Yosellaj Loft - FL 4403-AU17-HRPC BBCH H 1 12:25:05.10 701.615 00:06:06 Yes
130 Bodzianowski Loft - IL 1599-AU17-WRC CHOC C 1 12:25:05.60 701.382 00:06:07 Yes
130 H & H Loft - TX 6918-AU17-VK BB C 5 12:25:05.60 701.382 00:06:07 Yes
132 Avalos Loft - CA 1602-AU17-TULE PEN H 1 12:25:05.70 701.335 00:06:07 Yes
132 Tegan Bogoslawski - IN 0105-AU17-ANDY BB H 3 12:25:05.70 701.335 00:06:07 Missing
134 Erp -Duviel_ubaldo Team - GA 0047-AU17-ERP Gladiator BB C 3 12:25:06.10 701.149 00:06:07 Yes
135 Hylek Loft - IN 0306-AU17-MICH BB C 3 12:25:06.70 700.869 00:06:08 Yes
136 Ganus Family Loft - IN 0718-AU17-GFL BB H 9 12:25:07.10 700.683 00:06:08 Yes
137 Book & Van Wingerden - AZ 3902-AU17-SANT BB H 8 12:25:07.60 700.451 00:06:09 Yes
137 K T Loft - IN 0242-AU17-KT BB H 1 12:25:07.60 700.451 00:06:09 Yes
139 A D L Sheila - IL 0111-AU17-ADL BWF C 2 12:25:08.00 700.265 00:06:09 Yes
140 Golden Knights 11 - NV 0015-AU17-TONG Golden Knights 29 BB H 1 12:25:08.10 700.219 00:06:09 Yes
141 H & H Loft - TX 6924-AU17-VK BCH C 6 12:25:08.70 699.940 00:06:10 Yes
142 Book & Van Wingerden - AZ 7046-AU17-BOOK BWF C 9 12:25:09.70 699.477 00:06:11 Yes
143 Jones Family & Gwp Macaloney - TX 7087-AU17-JFL DCH C 1 12:25:10.20 699.245 00:06:11 Yes
144 America\'s Dream Loft - IL 0017-AU17-ADL BB C 2 12:25:10.30 699.199 00:06:11 Yes
145 Andy Skwiat - IN 0008-AU17-ANDY BB C 9 12:25:11.00 698.875 00:06:12 Yes
145 Furlano & Rotiroti - ON 3405-CU17-LAKE BB C 2 12:25:11.00 698.875 00:06:12 Yes
147 A D L Sheila - IL 0116-AU17-ADL BB C 3 12:25:11.50 698.644 00:06:13 Yes
148 Upper Canada Loft - ON 2865-CU17-MISS Nineteen x The Duchess BB H 1 12:25:12.10 698.367 00:06:13 Yes
149 Tegan Bogoslawski - IN 0090-AU17-ANDY BB H 4 12:25:12.60 698.136 00:06:14 Yes
150 Jorge And Ayon - CA 2412-AU17-LOSB BB H 2 12:25:13.50 697.721 00:06:15 Yes
151 Dan & Pete - IL 0010-AU17-BFS BB H 3 12:25:14.60 697.214 00:06:16 Yes
152 Jones Family Loft - TX 7197-AU17-JFL BCH H 1 12:25:15.20 696.938 00:06:16 Yes
153 Aztec Loft - DE 0295-AU17-AZTE G Power GRIZ C 2 12:25:15.70 696.708 00:06:17 Yes
154 Master One - CA 0038-AU17-MAST BB H 2 12:25:16.20 696.478 00:06:17 Yes
155 Zapopan-Palomar-Ayon Loft - TX 0435-AU17-PALO BPD H 1 12:25:16.30 696.432 00:06:17 Yes
156 Tegan Bogoslawski - IN 0081-AU17-ANDY Wi-Fi BSP C 5 12:25:16.80 696.203 00:06:18 Yes
157 Orozco's Loft - MI 0910-AU17-MEX CHPD H 3 12:25:17.30 695.973 00:06:18 Yes
158 Monsters Of The Midway Loft - IL 3066-AU17-FOYS Unexpected BWF H 1 12:25:17.70 695.790 00:06:19 Yes
159 Daehn/Miele - FL 0208-AU17-NWFI 217 X 790 BB H 4 12:25:17.80 695.744 00:06:19 Yes
160 Bill Kluge - TX 1734-AU17-COLD 10 BB C 1 12:25:18.40 695.469 00:06:19 Yes
161 Debbie Ganus - IN 0744-AU17-GFL BB H 7 12:25:19.30 695.057 00:06:20 Yes
162 Aubrina & Pappy - IN 0906-AU17-VK BSP H 6 12:25:19.80 694.828 00:06:21 Yes
163 Schillings - IN 0856-AU17-BFS SILV C 2 12:25:20.30 694.600 00:06:21 Yes
164 F T L Loft - IN 0029-AU17-HUTC BB H 8 12:25:20.70 694.417 00:06:22 Yes
165 Rpm Syndicate - ON 0176-IF17-BUFF BBPD H 2 12:25:20.80 694.371 00:06:22 Yes
166 Jorge And Ayon - CA 2413-AU17-LOSB BB C 3 12:25:21.30 694.143 00:06:22 Yes
167 A P C Loft - TX 17235-AU17-APC BB H 4 12:25:21.80 693.915 00:06:23 Yes
168 A P C Loft - TX 17035-AU17-APC BB H 5 12:25:22.60 693.551 00:06:24 Yes
169 Andy Skwiat - IN 1264-AU17-STON DCH C 1 12:25:23.10 693.323 00:06:24 Yes
169 Mesopotamia Loft - MN 5315-AU17-VK BCH H 3 12:25:23.10 693.323 00:06:24 Missing
171 777-Loft - MN 0206-AU17-SPR It's Crazy.... BB H 2 12:25:23.20 693.277 00:06:24 Yes
172 F T L Loft - IN 0028-AU17-HUTC CHSP H 9 12:25:23.60 693.095 00:06:25 Yes
173 America\'s Dream Loft - IL 0004-AU17-ADL BCH C 3 12:25:24.20 692.822 00:06:25 Yes
174 Erp -Duviel_ubaldo Team - GA 0048-AU17-ERP Ronda BB H 4 12:25:24.60 692.641 00:06:26 Yes
175 Bodzianowski Loft - IL 1600-AU17-WRC BCH C 2 12:25:25.50 692.232 00:06:27 Yes
176 Alca Girls - IL 62000-AU17-ARPU Mo BB H 2 12:25:26.30 691.869 00:06:27 Yes
177 Loft By Augustine - KS 7338-AU17-SWK DCWF C 1 12:25:27.30 691.416 00:06:28 Yes
178 Tegan Bogoslawski - IN 0127-AU17-ANDY BB C 6 12:25:27.70 691.235 00:06:29 Yes
179 Jorge And Ayon - CA 2408-AU17-LOSB BB H 4 12:25:28.70 690.783 00:06:30 Yes
180 K T Loft - IN 0200-AU17-KT BCH H 2 12:25:28.80 690.738 00:06:30 Yes
181 Master One - CA 70531-AU17-MAN BCH H 3 12:25:29.40 690.467 00:06:30 Yes
182 Rpm Syndicate - ON 0009-AU17-BFS BB H 3 12:25:29.50 690.422 00:06:31 Yes
183 Gibara Loft - FL 2624-AU17-HRPC BCH H 2 12:25:29.90 690.241 00:06:31 Yes
184 A P C Loft - TX 17016-AU17-APC BB C 6 12:25:30.60 689.926 00:06:32 Yes
184 Zheng Family Loft - NY 0785-AU17-ZFL ZFL 785 BB C 1 12:25:30.60 689.926 00:06:32 Yes
186 Daehn/Miele - FL 0253-AU17-NWFI 249 X 191 BWF H 5 12:25:32.60 689.025 00:06:34 Yes
187 Floden Lofts - KY 5054-AU17-VK BB H 1 12:25:33.00 688.845 00:06:34 Yes
188 Aztec Loft - DE 0267-AU17-AZTE Diva BWF H 3 12:25:33.10 688.800 00:06:34 Yes
189 Max - CA 0912-AU17-MAX BB H 2 12:25:33.60 688.576 00:06:35 Yes
190 Stevens Family Loft - IL 0037-AU17-MRPC BB C 2 12:25:33.90 688.441 00:06:35 Yes
191 Team Sandy - IN 0039-AU17-ANDY Crystal Sands CHSP H 1 12:25:34.20 688.307 00:06:35 Yes
192 Baczynski Loft - IN 11631-AU17-CHIC BWF H 2 12:25:34.70 688.082 00:06:36 Yes
193 Tegan Bogoslawski - IN 0093-AU17-ANDY BSP H 7 12:25:35.10 687.903 00:06:36 Yes
194 Dan & Pete - IL 0002-AU17-BFS BCH C 4 12:25:35.80 687.590 00:06:37 Yes
195 K T Loft - IN 0206-AU17-KT BCH C 3 12:25:36.70 687.187 00:06:38 Yes
196 Tegan Bogoslawski - IN 0089-AU17-ANDY BBWF H 8 12:25:37.30 686.919 00:06:38 Yes
196 Yandy Family Loft - FL 1256-AU17-VK BCH H 2 12:25:37.30 686.919 00:06:38 Yes
198 Hmong Syndicate - MN 0334-AU17-ROYA HMONG TIME BCH H 2 12:25:37.90 686.651 00:06:39 Yes
199 H & H Loft - TX 6901-AU17-VK BB C 7 12:25:39.10 686.115 00:06:40 Yes
200 Hillside Loft - ME 17109-AU17-TWOB Orion BB H 4 12:25:41.20 685.180 00:06:42 Yes

There are 323 bird records

Note: These Race Results are unofficial and subject to change until verified by the Race Committee and declared final.